Regional Weather Roundup
Issued by NWS

Home | Current Version | Previous Version | Text Only | Print | Product List | Glossary Off
Versions: 1 2 3 4 5 6 7 8 9 10 11 12 13 14 15 16 17 18 19 20 21 22 23 24 25 26 27 28 29 30 31 32 33 34 35 36 37 38 39 40 41 42 43 44 45 46 47 48 49 50

381
ASUS43 KOAX 300002
RWRNE

WEATHER ROUNDUP FOR NEBRASKA
NATIONAL WEATHER SERVICE OMAHA NE
700 PM CDT WED MAR 29 2017

NOTES: SATELLITE DATA IS BEING USED TO AUGMENT CLOUD COVER ABOVE
       12000 FEET.
       "FAIR" INDICATES FEW OR NO CLOUDS BELOW 12,000 FEET WITH NO
       SIGNIFICANT WEATHER AND/OR OBSTRUCTIONS TO VISIBILITY.

  * THESE STATIONS DO NOT REPORT WEATHER SUCH AS RAIN...SNOW OR FOG.

NEZ001>004-019>022-054>056-300100-
NEBRASKA PANHANDLE

CITY           SKY/WX    TMP DP  RH WIND       PRES   REMARKS
SCOTTSBLUFF    SUNNY     57  37  47 NE13      29.94S
6HR MIN TEMP:  49; 6HR MAX TEMP:  60;

ALLIANCE       MOSUNNY   53  37  54 NE12      29.95F
6HR MIN TEMP:  46; 6HR MAX TEMP:  53;

CHADRON        MOSUNNY   55  40  56 E14       29.95S
6HR MIN TEMP:  48; 6HR MAX TEMP:  58;

KIMBALL        MOSUNNY   51  39  65 NE13      29.97S
SIDNEY         MOSUNNY   50  37  61 NE16      29.97R
6HR MIN TEMP:  45; 6HR MAX TEMP:  52;

$$

NEZ057>060-069>072-079>082-300100-
SOUTHWEST NEBRASKA

CITY           SKY/WX    TMP DP  RH WIND       PRES   REMARKS
NORTH PLATTE   CLOUDY    46  38  73 N15       29.94S
6HR MIN TEMP:  46; 6HR MAX TEMP:  49;

IMPERIAL       CLOUDY    47  38  71 N15       29.94F
6HR MIN TEMP:  45; 6HR MAX TEMP:  47;

LEXINGTON      DRIZZLE   42  39  88 N15       29.91R
MCCOOK         CLOUDY    45  41  86 N20       29.90S
6HR MIN TEMP:  44; 6HR MAX TEMP:  45; 6HR PCP:  0.06;

OGALLALA       CLOUDY    50  39  66 NE8       29.96S
$$

NEZ005>010-023>029-035>040-094-300100-
NORTH CENTRAL NEBRASKA

CITY           SKY/WX    TMP DP  RH WIND       PRES   REMARKS
VALENTINE      CLOUDY    48  35  60 NE15      30.00S
6HR MIN TEMP:  48; 6HR MAX TEMP:  53;

AINSWORTH      CLOUDY    43  38  85 NE14      30.01R
BROKEN BOW     CLOUDY    42  40  92 N16       29.93R
6HR MIN TEMP:  42; 6HR MAX TEMP:  45; 6HR PCP:  0.02;

O`NEILL        CLOUDY    42  38  87 NE17G24   29.98R
ORD            LGT RAIN  41  37  86 NE16      29.92S
6HR MIN TEMP:  41; 6HR MAX TEMP:  45; 6HR PCP:  0.08;

THEDFORD       CLOUDY    47  38  72 NE15      29.98R
$$

NEZ041-046>049-061>064-073>077-083>087-300100-
SOUTH CENTRAL NEBRASKA

CITY           SKY/WX    TMP DP  RH WIND       PRES   REMARKS
GRAND ISLAND   CLOUDY    41  41 100 NE18G25   29.86F
6HR MIN TEMP:  41; 6HR MAX TEMP:  43; 6HR PCP:  0.19;

AURORA         DRIZZLE   40  40  99 NE24G30   29.83F WCI  30
HASTINGS       LGT RAIN  41  39  93 NE21      29.84S
6HR MIN TEMP:  41; 6HR MAX TEMP:  44; 6HR PCP:  0.24;

HEBRON         CLOUDY    41  40  95 NE21G26   29.77S
HOLDREGE       RAIN      39  36  91 N20G31    29.87R WCI  29
KEARNEY *      CLOUDY    39  36  87 N24       29.87S WCI  28
YORK           LGT RAIN  41  41 100 NE18G25   29.83F
$$

NEZ011>018-030>034-042>045-300100-
NORTHEAST NEBRASKA

CITY           SKY/WX    TMP DP  RH WIND       PRES   REMARKS
NORFOLK        LGT RAIN  41  37  86 NE17G23   29.90S
6HR MIN TEMP:  41; 6HR MAX TEMP:  44; 6HR PCP:  0.18;

ALBION         LGT RAIN  42  39  88 NE12G18   29.91S
BLAIR          RAIN      41  39  94 NE24G31   29.83F
FREMONT        LGT RAIN  42  41  97 NE20G26   29.86F
TEKAMAH        LGT RAIN  42  38  85 NE16G28   29.89F
6HR MIN TEMP:  42; 6HR MAX TEMP:  46; 6HR PCP:  0.38;

WAYNE          LGT RAIN  41  40  97 E16G28    29.93S
$$

NEZ050>053-065>068-078-088>093-300100-
SOUTHEAST NEBRASKA

CITY           SKY/WX    TMP DP  RH WIND       PRES   REMARKS
LINCOLN        CLOUDY    44  41  89 NE21G30   29.83S
6HR MIN TEMP:  43; 6HR MAX TEMP:  45; 6HR PCP:  0.37;

OMAHA EPPLEY   LGT RAIN  43  38  82 NE25G36   29.83F FOG
6HR MIN TEMP:  43; 6HR MAX TEMP:  44; 6HR PCP:  0.57;

BEATRICE       LGT RAIN  43  42  98 NE20G28   29.76S
FALLS CITY     CLOUDY    48  47  96 N13       29.70F
6HR MIN TEMP:  46; 6HR MAX TEMP:  48; 6HR PCP:  0.07;

NEBRASKA CITY  DRIZZLE   43  43 100 NE16G22   29.77R
PLATTSMOUTH    CLOUDY    43  40  89 NE17G26   29.80R FOG
$$

NEZ044-045-051>053-067-300100-
OMAHA AREA

CITY           SKY/WX    TMP DP  RH WIND       PRES   REMARKS
OMAHA EPPLEY   LGT RAIN  43  38  82 NE25G36   29.83F FOG
6HR MIN TEMP:  43; 6HR MAX TEMP:  44; 6HR PCP:  0.57;

BLAIR          RAIN      41  39  94 NE24G31   29.83F
FREMONT        LGT RAIN  42  41  97 NE20G26   29.86F
MILLARD        DRIZZLE   44  42  94 NE14G21   29.83F
OFFUTT AFB     CLOUDY    43  41  93 NE22G33   29.81F
PLATTSMOUTH    CLOUDY    43  40  89 NE17G26   29.80R FOG
WAHOO          RAIN      42  40  94 NE21G35   29.82F
$$




USA.gov is the U.S. government's official web portal to all federal, state and local government web resources and services.